FW6710 Weather Reports


time (UTC)temp
C
wind
direction
speed
KPH
gust
KPH
rain 1hr
cm
rain 24hr
cm
rain mn
cm
humidity
%
barometer
mb
20260507083100 19 0.0 0.0 0.00 0.03 0.03 75 1011.6
20260507081558 19 0.0 0.0 0.00 0.03 0.03 71 1011.3
20260507080058 18 0.0 0.0 0.00 0.03 0.03 72 1011.2
20260507074602 18 0.0 0.0 0.00 0.03 0.03 70 1011.1
20260507073109 17 0.0 0.0 0.00 0.03 0.03 75 1011.1
20260507071600 17 0.0 0.0 0.00 0.03 0.03 79 1011.3
20260507070110 16 0.0 0.0 0.00 0.03 0.03 82 1011.3
20260507064606 15 0.0 0.0 0.00 0.03 0.03 87 1011.2
20260507063059 15 0.0 0.0 0.00 0.03 0.03 91 1011.3
20260507061559 15 0.0 0.0 0.00 0.03 0.03 92 1011.2
20260507060059 15 0.0 0.0 0.00 0.03 0.03 92 1011.2
20260507054600 15 0.0 0.0 0.00 0.05 0.03 92 1011.0
20260507053100 15 0.0 0.0 0.00 0.05 0.03 92 1010.9
20260507051608 15 0.0 0.0 0.00 0.05 0.03 92 1010.8
20260507050110 15 0.0 0.0 0.00 0.05 0.03 92 1010.6
20260507044600 15 0.0 0.0 0.00 0.20 0.03 92 1010.3
20260507043100 15 0.0 0.0 0.00 0.20 0.03 92 1010.0
20260507041601 14 0.0 0.0 0.00 0.20 0.03 92 1010.1
20260507040106 14 0.0 0.0 0.00 0.20 0.03 92 1009.9
20260507034605 14 0.0 0.0 0.00 0.20 0.03 91 1010.0
20260507033103 14 0.0 0.0 0.00 0.20 0.03 91 1009.9
20260507031557 14 0.0 0.0 0.00 0.20 0.03 90 1009.9
20260507030056 14 0.0 0.0 0.00 0.20 0.03 90 1009.9
20260507024558 15 0.0 0.0 0.00 0.20 0.03 89 1009.8
20260507023057 15 0.0 0.0 0.00 0.20 0.03 89 1009.7
20260507021606 15 0.0 0.0 0.00 0.20 0.03 88 1009.7
20260507020059 15 0.0 0.0 0.03 0.20 0.03 88 1009.7
20260507014559 15 0.0 0.0 0.03 0.20 0.03 87 1009.8
20260507013100 16 0.0 0.0 0.03 0.20 0.03 86 1009.7
20260507011559 16 0.0 0.0 0.03 0.20 0.03 83 1009.9
20260507010057 16 0.0 0.0 0.00 0.18 0.00 81 1009.7
20260507004559 17 0.0 0.0 0.00 0.18 0.00 78 1009.8
20260507003059 17 0.0 0.0 0.00 0.18 0.00 79 1009.8
20260507001606 17 0.0 0.0 0.00 0.18 0.00 77 1009.9
20260507000101 17 0.0 0.0 0.00 0.18 0.00 77 1010.0
20260506234624 17 0.0 0.0 0.00 0.18 0.00 76 1009.7
20260506233100 17 0.0 0.0 0.00 0.18 0.00 76 1009.6
20260506231557 17 0.0 0.0 0.00 0.18 0.00 75 1009.5
20260506230100 17 0.0 0.0 0.00 0.18 0.00 75 1009.8
20260506224556 17 0.0 0.0 0.00 0.18 0.00 75 1009.7
20260506223102 17 0.0 0.0 0.00 0.18 0.00 74 1009.7
20260506221600 17 0.0 0.0 0.00 0.18 0.00 74 1009.8
20260506220058 17 0.0 0.0 0.00 0.18 0.00 73 1009.8
20260506214557 17 0.0 0.0 0.00 0.33 0.18 73 1010.0
20260506213057 17 0.0 0.0 0.00 0.33 0.18 73 1009.8
20260506211557 17 0.0 0.0 0.00 0.33 0.18 73 1009.9
20260506210058 17 0.0 0.0 0.00 0.33 0.18 74 1010.0
20260506204601 17 0.0 0.0 0.00 0.71 0.18 74 1009.9
20260506203059 18 0.0 0.0 0.00 0.71 0.18 75 1009.9
20260506201600 18 0.0 0.0 0.00 0.71 0.18 76 1009.7
20260506200113 18 0.0 0.0 0.00 0.71 0.18 74 1009.6
20260506194619 18 0.0 0.0 0.00 0.84 0.18 71 1009.6
20260506193058 19 0.0 0.0 0.00 0.84 0.18 69 1009.3
20260506191559 19 0.0 0.0 0.00 0.84 0.18 69 1009.2
20260506190101 19 0.0 0.0 0.00 0.84 0.18 68 1008.9
20260506184611 19 0.0 0.0 0.00 1.30 0.18 68 1008.7
20260506183105 20 0.0 0.0 0.00 1.30 0.18 67 1008.4
20260506181600 20 0.0 0.0 0.00 1.30 0.18 66 1008.1
20260506180058 20 0.0 0.0 0.00 1.30 0.18 65 1008.0
20260506174603 20 0.0 0.0 0.00 1.47 0.18 65 1007.8
20260506173111 20 0.0 0.0 0.00 1.47 0.18 63 1007.7
20260506171601 21 0.0 0.0 0.00 1.47 0.18 63 1007.6
20260506170058 21 0.0 0.0 0.00 1.47 0.18 62 1007.4
20260506164558 22 0.0 0.0 0.00 1.50 0.18 61 1007.3
20260506163057 22 0.0 0.0 0.00 1.50 0.18 60 1007.6
20260506161606 23 0.0 0.0 0.00 1.50 0.18 58 1007.5
20260506154609 23 0.0 0.0 0.00 1.50 0.18 57 1007.5
20260506153104 22 0.0 0.0 0.00 1.50 0.18 59 1007.5
20260506151609 22 0.0 0.0 0.00 1.50 0.18 60 1007.4
20260506150057 22 0.0 0.0 0.00 1.50 0.18 60 1007.4
20260506144619 22 0.0 0.0 0.00 1.50 0.18 59 1007.4
20260506143105 22 0.0 0.0 0.00 1.50 0.18 57 1007.3
20260506141558 22 0.0 0.0 0.00 1.50 0.18 59 1007.4
20260506140111 22 0.0 0.0 0.00 1.50 0.18 58 1007.8
20260506134556 22 0.0 0.0 0.00 1.50 0.18 59 1008.1
20260506133059 22 0.0 0.0 0.00 1.50 0.18 57 1008.2
20260506131600 23 0.0 0.0 0.00 1.50 0.18 58 1008.6
20260506130136 22 0.0 0.0 0.00 1.50 0.18 58 1008.6
20260506124559 22 0.0 0.0 0.00 1.50 0.18 60 1008.9
20260506123059 22 0.0 0.0 0.00 1.50 0.18 58 1008.8
20260506121602 23 0.0 0.0 0.00 1.50 0.18 57 1008.7
20260506114558 23 0.0 0.0 0.00 1.50 0.18 59 1008.8
20260506113107 22 0.0 0.0 0.00 1.50 0.18 63 1009.0
20260506111604 22 0.0 0.0 0.00 1.50 0.18 65 1009.1
20260506110105 21 0.0 0.0 0.00 1.50 0.18 66 1009.4
20260506104617 21 0.0 0.0 0.00 1.50 0.18 68 1009.4
20260506103100 20 0.0 0.0 0.00 1.50 0.18 68 1009.5
20260506101604 20 0.0 0.0 0.00 1.50 0.18 68 1009.4
20260506100104 20 0.0 0.0 0.00 1.50 0.18 69 1009.3
20260506094600 20 0.0 0.0 0.00 1.50 0.18 72 1009.5
20260506093105 19 0.0 0.0 0.00 1.50 0.18 76 1009.6
20260506091558 18 0.0 0.0 0.00 1.50 0.18 77 1009.5
20260506084558 18 0.0 0.0 0.00 1.50 0.18 81 1009.6